Weather in Tempy

Russia / Moscow Oblast     56°38′04″N   37°17′48″E
В апреле 2022 года жителям России запретили посещать сайт meteo.paraplan.net по решению Генеральной прокуратуры. Аудитория сайта уменьшилась в 10 раз. Владельцы сайта не видят смысла в поддержке погодного сервера в таких условиях. Сайт будет закрыт в октябре.
temp.,
°C
wind,
m/s
gust,
m/s
humid.,
%
clouds,
%
prec.,
mm/h
press.,
hPa
HPBL,
m
25 september, sun
sun2500:00+9nne3699100 0.1 997298
03:00+8ne3696100 0.6 998407
06:00+7ene3793100 0.2 1000527
09:00+6ene3691100 0.4 1001468
12:00+7e2589100 0.2 1003536
15:00+8ene2484100 0.4 1004588
18:00+7ne249293 0.1 1005192
21:00+7nnw1396100 0.3 1006168
26 september, mon
mon2600:00+6nw129799 0.0 100668
03:00+6nw2397100 0.0 100786
06:00+6w2596100 0.0 1007183
09:00+8wnw2591100 0.0 1008250
12:00+11wnw3576100 0.1 1008668
15:00+10w4881100 0.9 1008454
18:00+9w3886100 0.2 1009333
21:00+8w3892100 0.6 1010306
27 september, tue
tue2700:00+7wnw2794100 0.1 1010284
03:00+7wsw2595100 0.3 1010185
06:00+7wsw2595100 1.2 1010241
09:00+7ssw2595100 3.3 1011249
12:00+8s1391100 1.0 1012235
15:00+8e2691100 1.2 1012317
18:00+8ese369483 0.3 1012227
21:00+8ese2695100 0.4 1013255
28 september, wed
wed2800:00+8e3992100 1.4 1013388
03:00+5e31096100 1.4 1012252
06:00+5ene41293100 0.0 1011371
09:00+7ene51491100 0.0 1009754
12:00+7e61493100 1.9 1007801
15:00+7e51294100 4.1 1006767
18:00+7e51395100 2.3 1005631
21:00+8e51295100 3.2 1004561
29 september, thu
thu2900:00+8e41197100 2.3 1004528
03:00+8e41097100 4.4 1004484
06:00+8ese3998100 2.0 1005408
09:00+8ese2598100 2.4 1007259
12:00+10wsw3694100 0.0 1009528
15:00+10wsw3586100 0.1 1012696
18:00+10wsw2381100 0.0 101569
21:00+9s1188100 0.0 101712